Weather History for Robstown, TX

Change the Weather History Date:

Tuesday, December 25, 2012

  Actual Average (KCRP) Record (KCRP)
Temperature  
Mean Temperature 62 °F 57 °F  
Max Temperature 80 °F 67 °F 89 °F (1964)
Min Temperature 42 °F 47 °F 14 °F (1983)
Degree Days  
Heating Degree Days 4 9  
Month to date heating degree days 195  
Since 1 July heating degree days 296  
Cooling Degree Days 0 1  
Month to date cooling degree days 43  
Year to date cooling degree days 3518  
Growing Degree Days 12 (Base 50)    
Moisture  
Dew Point 46 °F    
Average Humidity 55    
Maximum Humidity 92    
Minimum Humidity 11    
Precipitation  
Precipitation 0.00 in 0.07 in 3.97 in (1938)
Month to date precipitation 1.44  
Year to date precipitation 31.37  
Snow  
Snow 0.00 in - - ()
Month to date snowfall  
Since 1 July snowfall  
Snow Depth -    
Sea Level Pressure  
Sea Level Pressure 29.77 in    
Wind  
Wind Speed 17 mph (WNW)    
Max Wind Speed 32 mph    
Max Gust Speed 44 mph    
Visibility 10 miles    
Events      
T = Trace of Precipitation, MM = Missing Value Source: NWS Daily Summary

Daily Weather History Graph

Daily Weather History Graph

Search for Another Location

Airport:

Trip Planner

Search our weather history database for the weather conditions in past years. The results will help you decide how hot, cold, wet, or windy it might be!

Date:

Astronomy

Dec. 25, 2012 Rise Set
Actual Time 7:19 AM CST 5:42 PM CST
Civil Twilight 6:53 AM CST 6:08 PM CST
Nautical Twilight 6:24 AM CST 6:37 PM CST
Astronomical Twilight 5:55 AM CST 7:06 PM CST
Moon 3:48 PM CST (12/25) 4:56 AM CST (12/25)
Length of Visible Light 11h 14m
Length of Day
10h 23m
Waxing Gibbous, 94% of the Moon is Illuminated
Dec 25
Waxing Gibbous
Dec 28
Full
Jan 4
Last Quarter
Jan 11
New
Jan 18
First Quarter

Hourly Weather History & Observations

Time (CST) Temp. Windchill Dew Point Humidity Pressure Visibility Wind Dir Wind Speed Gust Speed Precip Events Conditions
12:15 AM 69.4 °F - 66.4 °F 90% 29.68 in 10.0 mi SE 15.0 mph - N/A   Clear
12:35 AM 69.8 °F - 66.6 °F 89% 29.68 in 10.0 mi SE 12.7 mph - N/A   Scattered Clouds
12:55 AM 70.0 °F - 66.7 °F 89% 29.68 in 10.0 mi SSE 13.8 mph - N/A   Scattered Clouds
1:15 AM 69.8 °F - 66.7 °F 90% 29.68 in 10.0 mi SSE 8.1 mph - N/A   Scattered Clouds
1:35 AM 70.7 °F - 67.3 °F 89% 29.68 in 10.0 mi SSE 11.5 mph - N/A   Mostly Cloudy
1:55 AM 71.1 °F - 67.5 °F 88% 29.67 in 10.0 mi South 12.7 mph - N/A   Mostly Cloudy
2:15 AM 71.2 °F - 67.5 °F 88% 29.68 in 10.0 mi South 12.7 mph - N/A   Mostly Cloudy
2:35 AM 70.7 °F - 67.1 °F 88% 29.66 in 10.0 mi South 16.1 mph - N/A   Scattered Clouds
2:55 AM 70.3 °F - 66.7 °F 88% 29.66 in 10.0 mi South 12.7 mph - N/A   Clear
3:15 AM 70.2 °F - 66.7 °F 89% 29.64 in 10.0 mi SSE 13.8 mph - N/A   Clear
3:35 AM 70.2 °F - 66.7 °F 89% 29.64 in 10.0 mi SSE 12.7 mph - N/A   Clear
3:55 AM 70.0 °F - 66.6 °F 89% 29.64 in 10.0 mi South 13.8 mph - N/A   Clear
4:15 AM 70.0 °F - 66.6 °F 89% 29.63 in 10.0 mi South 16.1 mph - N/A   Clear
4:35 AM 70.0 °F - 66.6 °F 89% 29.63 in 10.0 mi South 15.0 mph - N/A   Clear
4:55 AM 69.8 °F - 66.4 °F 89% 29.63 in 10.0 mi South 12.7 mph - N/A   Clear
5:15 AM 69.4 °F - 66.2 °F 89% 29.62 in 10.0 mi SSE 16.1 mph - N/A   Clear
5:35 AM 69.3 °F - 66.2 °F 90% 29.62 in 10.0 mi South 10.4 mph - N/A   Clear
5:55 AM 69.1 °F - 66.0 °F 90% 29.62 in 7.0 mi South 8.1 mph - N/A   Clear
6:15 AM 68.4 °F - 65.5 °F 90% 29.63 in 7.0 mi South 8.1 mph - N/A   Clear
6:35 AM 67.5 °F - 64.9 °F 92% 29.63 in 7.0 mi South 9.2 mph - N/A   Clear
6:55 AM 66.7 °F - 64.4 °F 92% 29.64 in 7.0 mi South 9.2 mph - N/A   Clear
7:15 AM 66.4 °F - 64.0 °F 92% 29.64 in 7.0 mi South 10.4 mph - N/A   Clear
7:35 AM 66.4 °F - 64.0 °F 92% 29.64 in 7.0 mi South 9.2 mph - N/A   Clear
7:55 AM 67.1 °F - 64.4 °F 91% 29.65 in 7.0 mi SSW 10.4 mph - N/A   Clear
8:15 AM 68.2 °F - 64.9 °F 89% 29.65 in 7.0 mi SSW 12.7 mph - N/A   Clear
8:35 AM 69.8 °F - 65.7 °F 87% 29.66 in 10.0 mi SSW 13.8 mph - N/A   Clear
8:55 AM 70.7 °F - 66.0 °F 85% 29.66 in 10.0 mi SSW 15.0 mph - N/A   Clear
9:15 AM 72.3 °F - 66.2 °F 81% 29.69 in 10.0 mi SW 19.6 mph - N/A   Clear
9:35 AM 73.8 °F - 65.5 °F 75% 29.70 in 10.0 mi SW 21.9 mph 32.2 mph N/A   Clear
9:55 AM 75.2 °F - 64.9 °F 70% 29.73 in 10.0 mi WSW 20.7 mph - N/A   Clear
10:15 AM 76.1 °F - 64.4 °F 67% 29.74 in 10.0 mi West 19.6 mph 24.2 mph N/A   Clear
10:35 AM 77.5 °F - 59.9 °F 54% 29.75 in 10.0 mi WNW 26.5 mph 32.2 mph N/A   Clear
10:55 AM 76.6 °F - 57.0 °F 51% 29.76 in 10.0 mi NW 26.5 mph 34.5 mph N/A   Scattered Clouds
11:15 AM 76.8 °F - 47.5 °F 35% 29.76 in 10.0 mi NNW 25.3 mph 33.4 mph N/A   Clear
11:35 AM 78.1 °F - 43.9 °F 30% 29.76 in 10.0 mi NNW 26.5 mph 32.2 mph N/A   Clear
11:55 AM 77.7 °F - 43.7 °F 30% 29.75 in 10.0 mi NW 27.6 mph 36.8 mph N/A   Clear
12:15 PM 78.6 °F - 43.9 °F 29% 29.75 in 10.0 mi NNW 26.5 mph 33.4 mph N/A   Clear
12:35 PM 79.5 °F - 34.3 °F 20% 29.75 in 10.0 mi NNW 29.9 mph 38.0 mph N/A   Clear
12:55 PM 80.2 °F - 30.0 °F 16% 29.74 in 10.0 mi NNW 23.0 mph 35.7 mph N/A   Clear
1:15 PM 79.9 °F - 27.0 °F 14% 29.74 in 10.0 mi NNW 25.3 mph 38.0 mph N/A   Clear
1:35 PM 80.1 °F - 24.8 °F 13% 29.74 in 10.0 mi NNW 28.8 mph 43.7 mph N/A   Clear
1:55 PM 80.2 °F - 24.3 °F 13% 29.73 in 10.0 mi NW 25.3 mph 32.2 mph N/A   Clear
2:15 PM 79.9 °F - 22.5 °F 12% 29.74 in 10.0 mi NW 27.6 mph 38.0 mph N/A   Clear
2:35 PM 79.9 °F - 22.1 °F 12% 29.74 in 10.0 mi NW 32.2 mph 38.0 mph N/A   Clear
2:55 PM 79.5 °F - 21.0 °F 11% 29.75 in 10.0 mi NNW 25.3 mph 34.5 mph N/A   Clear
3:15 PM 79.2 °F - 20.3 °F 11% 29.75 in 10.0 mi NW 26.5 mph 35.7 mph N/A   Clear
3:35 PM 78.3 °F - 20.7 °F 12% 29.76 in 10.0 mi NNW 27.6 mph 36.8 mph N/A   Clear
3:55 PM 77.7 °F - 20.3 °F 12% 29.76 in 10.0 mi NNW 29.9 mph 38.0 mph N/A   Clear
4:15 PM 77.2 °F - 21.0 °F 12% 29.77 in 10.0 mi NNW 26.5 mph 36.8 mph N/A   Clear
4:35 PM 76.5 °F - 21.0 °F 13% 29.78 in 10.0 mi NW 25.3 mph 32.2 mph N/A   Clear
5:35 PM 72.7 °F - 21.4 °F 15% 29.82 in 10.0 mi NNW 18.4 mph 26.5 mph N/A   Clear
5:55 PM 71.2 °F - 23.5 °F 17% 29.84 in 10.0 mi NNW 26.5 mph 32.2 mph N/A   Clear
6:35 PM 68.2 °F - 24.6 °F 19% 29.87 in 10.0 mi NNW 26.5 mph 33.4 mph N/A   Clear
6:55 PM 66.4 °F - 24.8 °F 21% 29.88 in 10.0 mi NNW 25.3 mph 29.9 mph N/A   Clear
7:15 PM 65.1 °F - 25.3 °F 22% 29.90 in 10.0 mi NNW 27.6 mph 34.5 mph N/A   Clear
7:35 PM 62.6 °F - 26.1 °F 25% 29.93 in 10.0 mi North 23.0 mph 36.8 mph N/A   Clear
7:55 PM 60.3 °F - 27.3 °F 29% 29.95 in 10.0 mi North 28.8 mph 35.7 mph N/A   Clear
8:15 PM 55.9 °F - 26.6 °F 32% 29.98 in 10.0 mi North 27.6 mph 40.3 mph N/A   Clear
8:35 PM 53.1 °F - 25.9 °F 35% 30.01 in 10.0 mi North 25.3 mph 35.7 mph N/A   Clear
8:55 PM 50.9 °F - 24.8 °F 36% 30.02 in 10.0 mi North 19.6 mph 25.3 mph N/A   Clear
9:15 PM 50.0 °F - 24.4 °F 37% 30.03 in 10.0 mi NNW 20.7 mph 27.6 mph N/A   Clear
10:15 PM 47.7 °F - 24.4 °F 40% 30.09 in 10.0 mi North 11.5 mph - N/A   Clear
10:35 PM 46.9 °F - 24.4 °F 41% 30.11 in 10.0 mi North 15.0 mph 24.2 mph N/A   Clear
10:55 PM 45.7 °F 37.6 °F 23.9 °F 42% 30.13 in 10.0 mi North 21.9 mph 27.6 mph N/A   Clear
11:15 PM 44.6 °F 37.2 °F 23.5 °F 44% 30.15 in 10.0 mi NNW 17.3 mph - N/A   Clear
11:35 PM 43.3 °F 38.1 °F 23.5 °F 46% 30.15 in 10.0 mi North 9.2 mph - N/A   Clear
11:55 PM 42.6 °F 35.9 °F 23.7 °F 47% 30.16 in 10.0 mi North 12.7 mph - N/A   Clear